Terminal Aerodrome Forecast
Issued by NWS St Louis, MO

Home | Current Version | Previous Version | Text Only | Print | Product List | Glossary On
Versions: 1 2 3 4 5 6 7 8 9 10 11 12 13 14 15 16 17 18 19 20 21 22 23 24
000
FTUS43 KLSX 212000 AAA
TAFSTL
TAF AMD
KSTL 212053Z 2121/2224 18007KT P6SM FEW045
     FM220000 15006KT P6SM SKC
     FM221500 20008KT P6SM FEW045 SCT250=

USA.gov is the U.S. government's official web portal to all federal, state and local government web resources and services.